This is the latest recevied weather packets stored in our database for station/object WA4IKQ. If no packets are shown the sender has not sent any weather packets the latest 10 day(s).
| Time | Temp. | Humidity | Pressure | Rain* | Wind** | Luminosity | Snow |
|---|---|---|---|---|---|---|---|
| 1778166725 | 30.56° C | 48% | 1016 hPa | 0 mm | 2.24 m/s, 195° | - | - |
| 1778166671 | 30.56° C | 48% | 1016 hPa | 0 mm | 2.24 m/s, 195° | - | - |
| 1778166491 | 30° C | 50% | 1016 hPa | 0 mm | 2.68 m/s, 167° | - | - |
| 1778166372 | 30° C | 50% | 1016 hPa | 0 mm | 2.68 m/s, 167° | - | - |
| 1778166188 | 30° C | 50% | 1016.1 hPa | 0 mm | 1.79 m/s, 150° | - | - |
| 1778165769 | 30° C | 55% | 1016 hPa | 0 mm | 3.13 m/s, 152° | - | - |
| 1778165590 | 30° C | 56% | 1016.1 hPa | 0 mm | 0.89 m/s, 214° | - | - |
| 1778165470 | 30° C | 56% | 1016.1 hPa | 0 mm | 0.89 m/s, 214° | - | - |
| 1778165279 | 29.44° C | 57% | 1016 hPa | 0 mm | 3.58 m/s, 139° | - | - |
| 1778165170 | 29.44° C | 57% | 1016 hPa | 0 mm | 3.58 m/s, 139° | - | - |
| 1778164413 | 29.44° C | 59% | 1016.1 hPa | 0 mm | 1.34 m/s, 169° | - | - |
| 1778164271 | 29.44° C | 59% | 1016.1 hPa | 0 mm | 1.34 m/s, 169° | - | - |
| 1778163773 | 28.89° C | 61% | 1016.2 hPa | 0 mm | 2.68 m/s, 232° | - | - |
| 1778163484 | 28.89° C | 62% | 1016.2 hPa | 0 mm | 2.24 m/s, 136° | - | - |
| 1778162883 | 28.33° C | 63% | 1016.2 hPa | 0 mm | 1.79 m/s, 165° | - | - |
| 1778162770 | 28.33° C | 63% | 1016.2 hPa | 0 mm | 1.79 m/s, 165° | - | - |
| 1778162586 | 28.33° C | 65% | 1016.1 hPa | 0 mm | 2.24 m/s, 165° | - | - |
| 1778162472 | 28.33° C | 65% | 1016.1 hPa | 0 mm | 2.24 m/s, 165° | - | - |
| 1778162288 | 27.78° C | 66% | 1016.1 hPa | 0 mm | 1.34 m/s, 129° | - | - |
| 1778162171 | 27.78° C | 66% | 1016.1 hPa | 0 mm | 1.34 m/s, 129° | - | - |
| 1778161428 | 27.22° C | 69% | 1016.1 hPa | 0 mm | 0 m/s | - | - |
| 1778161275 | 27.22° C | 69% | 1016.1 hPa | 0 mm | 0 m/s | - | - |
| 1778160520 | 26.67° C | 71% | 1016.1 hPa | 0 mm | 1.79 m/s, 174° | - | - |
| 1778159578 | 26.11° C | 74% | 1016.1 hPa | 0 mm | 0.89 m/s, 82° | - | - |
| 1778159381 | 26.11° C | 75% | 1016 hPa | 0 mm | 1.34 m/s, 152° | - | - |
* Rain latest hour (hover to see other rain measurements)
** Current wind speed in m/s (hover to see current wind gust speed)